Schneifelwetter: Wetterstation Hallschlag, 537 m . NN
Wetterdaten: Samstag, 20.02.2010
Datum Zeit Temp. A. Feuchte A. Luftdruck Regen Wind Richtung Richtung Sonnenschein Helligkeit T Regen Taupunkt Windchill
20.02.2010 00:00 -2,3 C 95 % 995 hPa 0,0 l/m 15,0 km/h (3 Bft) W-SW22.5 250 0 min 0 lux 0,00 min -3,0 C -9,8 C
20.02.2010 00:15 -2,3 C 95 % 996 hPa 0,0 l/m 13,2 km/h (3 Bft) SW22.5 230 0 min 0 lux 0,00 min -3,0 C -8,5 C
20.02.2010 00:30 -2,2 C 95 % 996 hPa 0,0 l/m 14,5 km/h (3 Bft) W-SW22.5 245 0 min 0 lux 0,00 min -2,9 C -9,3 C
20.02.2010 00:45 -2,2 C 94 % 996 hPa 0,0 l/m 14,8 km/h (3 Bft) SW22.5 230 0 min 0 lux 0,00 min -3,0 C -9,5 C
20.02.2010 01:00 -2,1 C 94 % 996 hPa 0,0 l/m 16,3 km/h (3 Bft) W-SW22.5 245 0 min 0 lux 0,00 min -2,9 C -10,3 C
20.02.2010 01:15 -2,3 C 93 % 996 hPa 0,0 l/m 21,6 km/h (4 Bft) W-SW22.5 250 0 min 0 lux 0,00 min -3,3 C -13,4 C
20.02.2010 01:30 -2,4 C 93 % 996 hPa 0,0 l/m 24,1 km/h (4 Bft) W-SW22.5 250 0 min 0 lux 0,00 min -3,4 C -14,6 C
20.02.2010 01:45 -2,3 C 93 % 996 hPa 0,0 l/m 24,8 km/h (4 Bft) W-SW45 250 0 min 0 lux 0,00 min -3,3 C -14,8 C
20.02.2010 02:00 -2,3 C 93 % 996 hPa 0,0 l/m 26,6 km/h (4 Bft) W-SW45 250 0 min 0 lux 0,00 min -3,3 C -15,5 C
20.02.2010 02:15 -2,3 C 93 % 996 hPa 0,0 l/m 20,6 km/h (4 Bft) W-SW22.5 250 0 min 0 lux 0,00 min -3,3 C -12,9 C
20.02.2010 02:30 -2,4 C 92 % 995 hPa 0,0 l/m 16,9 km/h (3 Bft) SW45 225 0 min 0 lux 0,00 min -3,5 C -11,1 C
20.02.2010 02:45 -2,6 C 93 % 995 hPa 0,0 l/m 22,1 km/h (4 Bft) W-SW45 245 0 min 0 lux 0,00 min -3,6 C -14,0 C
20.02.2010 03:00 -2,6 C 94 % 995 hPa 0,0 l/m 19,0 km/h (3 Bft) W-SW22.5 250 0 min 0 lux 0,00 min -3,4 C -12,5 C
20.02.2010 03:15 -2,6 C 94 % 995 hPa 0,0 l/m 16,8 km/h (3 Bft) W-SW22.5 240 0 min 0 lux 0,00 min -3,4 C -11,2 C
20.02.2010 03:30 -2,6 C 95 % 995 hPa 0,0 l/m 18,2 km/h (3 Bft) SW22.5 225 0 min 0 lux 0,00 min -3,3 C -12,0 C
20.02.2010 03:45 -2,6 C 95 % 995 hPa 0,0 l/m 17,3 km/h (3 Bft) W-SW22.5 250 0 min 0 lux 0,00 min -3,3 C -11,5 C
20.02.2010 04:00 -2,6 C 95 % 995 hPa 0,0 l/m 14,9 km/h (3 Bft) SW45 225 0 min 0 lux 0,00 min -3,3 C -10,1 C
20.02.2010 04:15 -2,6 C 95 % 995 hPa 0,0 l/m 19,9 km/h (4 Bft) W-SW22.5 245 0 min 0 lux 0,00 min -3,3 C -12,9 C
20.02.2010 04:30 -2,5 C 95 % 995 hPa 0,0 l/m 23,8 km/h (4 Bft) W-SW22.5 250 0 min 0 lux 0,00 min -3,2 C -14,6 C
20.02.2010 04:45 -2,4 C 95 % 995 hPa 0,0 l/m 23,8 km/h (4 Bft) W-SW45 240 0 min 0 lux 0,00 min -3,1 C -14,5 C
20.02.2010 05:00 -2,4 C 96 % 995 hPa 0,0 l/m 26,0 km/h (4 Bft) W-SW45 250 0 min 0 lux 0,00 min -2,9 C -15,4 C
20.02.2010 05:15 -2,3 C 96 % 995 hPa 0,0 l/m 25,1 km/h (4 Bft) W-SW45 245 0 min 0 lux 0,00 min -2,8 C -14,9 C
20.02.2010 05:30 -2,2 C 96 % 995 hPa 0,0 l/m 27,1 km/h (4 Bft) SW45 230 0 min 0 lux 0,00 min -2,7 C -15,5 C
20.02.2010 05:45 -2,3 C 96 % 994 hPa 0,0 l/m 24,6 km/h (4 Bft) SW22.5 230 0 min 0 lux 0,00 min -2,8 C -14,7 C
20.02.2010 06:00 -2,2 C 96 % 995 hPa 0,0 l/m 23,1 km/h (4 Bft) W-SW22.5 250 0 min 0 lux 0,00 min -2,7 C -13,9 C
20.02.2010 06:15 -2,2 C 96 % 995 hPa 0,0 l/m 23,7 km/h (4 Bft) W-SW22.5 250 0 min 0 lux 0,00 min -2,7 C -14,2 C
20.02.2010 06:30 -2,2 C 96 % 995 hPa 0,0 l/m 18,1 km/h (3 Bft) SW22.5 225 0 min 0 lux 0,00 min -2,7 C -11,5 C
20.02.2010 06:45 -2,3 C 96 % 995 hPa 0,0 l/m 17,0 km/h (3 Bft) W-SW45 255 0 min 0 lux 0,00 min -2,8 C -11,0 C
20.02.2010 07:00 -2,4 C 96 % 995 hPa 0,0 l/m 21,2 km/h (4 Bft) W-SW22.5 250 0 min 0 lux 0,00 min -2,9 C -13,3 C
20.02.2010 07:15 -2,3 C 96 % 995 hPa 0,0 l/m 22,8 km/h (4 Bft) W-SW22.5 240 0 min 0 lux 0,00 min -2,8 C -13,9 C
20.02.2010 07:30 -2,3 C 96 % 995 hPa 0,0 l/m 31,0 km/h (5 Bft) W-SW22.5 255 0 min 315 lux 0,00 min -2,8 C -17,0 C
20.02.2010 07:45 -2,2 C 96 % 995 hPa 0,0 l/m 32,4 km/h (5 Bft) W-SW22.5 250 0 min 670 lux 0,00 min -2,7 C -17,2 C
20.02.2010 08:00 -2,2 C 96 % 995 hPa 0,0 l/m 26,6 km/h (4 Bft) W-SW22.5 255 0 min 1,74 klux 0,00 min -2,7 C -15,3 C
20.02.2010 08:15 -2,2 C 96 % 995 hPa 0,0 l/m 29,0 km/h (5 Bft) W-SW45 250 0 min 2,24 klux 0,00 min -2,7 C -16,2 C
20.02.2010 08:30 -2,1 C 96 % 995 hPa 0,0 l/m 28,3 km/h (4 Bft) W-SW22.5 250 0 min 2,94 klux 0,00 min -2,6 C -15,8 C
20.02.2010 08:45 -1,9 C 96 % 995 hPa 0,0 l/m 27,6 km/h (4 Bft) W-SW22.5 250 0 min 6,88 klux 0,00 min -2,5 C -15,3 C
20.02.2010 09:00 -1,7 C 96 % 995 hPa 0,0 l/m 35,0 km/h (5 Bft) SW45 235 0 min 14,1 klux 0,00 min -2,3 C -17,3 C
20.02.2010 09:15 -1,1 C 95 % 995 hPa 0,0 l/m 22,0 km/h (4 Bft) W-SW22.5 245 0 min 18,7 klux 0,00 min -1,8 C -12,0 C
20.02.2010 09:30 -1,0 C 93 % 995 hPa 0,0 l/m 29,8 km/h (5 Bft) W-SW45 250 0 min 15,2 klux 0,00 min -2,0 C -14,7 C
20.02.2010 09:45 -0,7 C 92 % 995 hPa 0,0 l/m 31,8 km/h (5 Bft) W-SW22.5 250 0 min 24,2 klux 0,00 min -1,8 C -14,9 C
20.02.2010 10:00 -0,5 C 91 % 995 hPa 0,0 l/m 33,9 km/h (5 Bft) W-SW22.5 250 0 min 24,2 klux 0,00 min -1,8 C -15,2 C
20.02.2010 10:16 -0,4 C 90 % 995 hPa 0,0 l/m 32,3 km/h (5 Bft) W-SW22.5 250 0 min 20,8 klux 0,00 min -1,8 C -14,6 C
20.02.2010 10:30 -0,6 C 90 % 995 hPa 0,0 l/m 32,5 km/h (5 Bft) W-SW45 245 0 min 17,7 klux 0,00 min -2,0 C -15,0 C
20.02.2010 10:45 -0,6 C 90 % 995 hPa 0,0 l/m 27,2 km/h (4 Bft) W-SW45 245 0 min 23,2 klux 0,00 min -2,0 C -13,3 C
20.02.2010 11:00 0,2 C 90 % 995 hPa 0,0 l/m 27,5 km/h (4 Bft) W-SW45 240 15 min 33,7 klux 0,00 min -1,2 C -12,3 C
20.02.2010 11:15 0,5 C 87 % 995 hPa 0,0 l/m 22,5 km/h (4 Bft) SW45 230 15 min 33,9 klux 0,00 min -1,4 C -10,1 C
20.02.2010 11:30 0,7 C 87 % 995 hPa 0,0 l/m 33,6 km/h (5 Bft) W-SW22.5 255 15 min 34,8 klux 0,00 min -1,2 C -13,4 C
20.02.2010 11:46 0,7 C 86 % 996 hPa 0,0 l/m 30,4 km/h (5 Bft) W-SW45 240 16 min 32,5 klux 0,00 min -1,4 C -12,5 C
20.02.2010 12:01 0,7 C 84 % 996 hPa 0,0 l/m 31,4 km/h (5 Bft) W-SW22.5 250 15 min 32,2 klux 0,00 min -1,7 C -12,8 C
20.02.2010 12:15 1,0 C 84 % 996 hPa 0,0 l/m 37,8 km/h (5 Bft) SW45 235 14 min 58,9 klux 0,00 min -1,4 C -14,0 C
20.02.2010 12:30 1,1 C 84 % 996 hPa 0,0 l/m 29,7 km/h (5 Bft) SW45 235 15 min 33,5 klux 0,00 min -1,3 C -11,8 C
20.02.2010 12:45 1,5 C 84 % 996 hPa 0,0 l/m 29,6 km/h (5 Bft) W-SW45 245 15 min 41,8 klux 0,00 min -0,9 C -11,2 C
20.02.2010 13:00 1,7 C 82 % 996 hPa 0,0 l/m 30,7 km/h (5 Bft) W-SW22.5 255 15 min 39,7 klux 0,00 min -1,0 C -11,2 C
20.02.2010 13:15 1,7 C 80 % 996 hPa 0,0 l/m 36,9 km/h (5 Bft) W-SW22.5 250 15 min 41,6 klux 0,00 min -1,4 C -12,8 C
20.02.2010 13:31 1,3 C 80 % 996 hPa 0,0 l/m 33,0 km/h (5 Bft) W-SW22.5 255 16 min 42,9 klux 0,00 min -1,8 C -12,4 C
20.02.2010 13:46 1,6 C 81 % 996 hPa 0,0 l/m 30,1 km/h (5 Bft) W-SW22.5 245 15 min 62,6 klux 0,00 min -1,3 C -11,2 C
20.02.2010 14:01 2,0 C 81 % 996 hPa 0,0 l/m 30,6 km/h (5 Bft) W-SW45 255 15 min 56,5 klux 0,00 min -0,9 C -10,8 C
20.02.2010 14:15 1,6 C 80 % 996 hPa 0,0 l/m 26,5 km/h (4 Bft) W-SW22.5 245 14 min 28,0 klux 0,00 min -1,5 C -10,1 C
20.02.2010 14:30 1,4 C 82 % 996 hPa 0,0 l/m 19,3 km/h (3 Bft) SW45 230 0 min 19,9 klux 0,00 min -1,3 C -7,5 C
20.02.2010 14:45 1,2 C 82 % 996 hPa 0,0 l/m 26,9 km/h (4 Bft) W22.5 260 0 min 17,1 klux 0,00 min -1,5 C -10,8 C
20.02.2010 15:00 1,2 C 83 % 996 hPa 0,0 l/m 27,9 km/h (4 Bft) W-SW22.5 255 0 min 19,0 klux 0,00 min -1,4 C -11,1 C
20.02.2010 15:15 1,1 C 82 % 996 hPa 0,0 l/m 27,1 km/h (4 Bft) W-SW22.5 255 0 min 10,1 klux 0,00 min -1,6 C -11,0 C
20.02.2010 15:31 1,1 C 82 % 996 hPa 0,0 l/m 30,4 km/h (5 Bft) W22.5 260 0 min 17,3 klux 0,00 min -1,6 C -12,0 C
20.02.2010 15:46 1,2 C 82 % 996 hPa 0,0 l/m 21,0 km/h (4 Bft) W-SW22.5 250 0 min 17,6 klux 0,00 min -1,5 C -8,5 C
20.02.2010 16:00 1,2 C 82 % 996 hPa 0,0 l/m 22,8 km/h (4 Bft) W-SW22.5 245 0 min 15,6 klux 0,00 min -1,5 C -9,3 C
20.02.2010 16:15 0,9 C 82 % 996 hPa 0,0 l/m 27,2 km/h (4 Bft) W22.5 260 0 min 9,8 klux 0,00 min -1,8 C -11,3 C
20.02.2010 16:30 0,5 C 84 % 996 hPa 0,0 l/m 23,8 km/h (4 Bft) W-SW22.5 250 0 min 22,5 klux 0,00 min -1,9 C -10,6 C
20.02.2010 16:45 0,1 C 84 % 997 hPa 0,0 l/m 18,3 km/h (3 Bft) W-SW45 250 0 min 8,62 klux 0,00 min -2,3 C -8,7 C
20.02.2010 17:00 -0,2 C 85 % 997 hPa 0,0 l/m 15,3 km/h (3 Bft) W-SW22.5 240 0 min 4,94 klux 0,00 min -2,4 C -7,4 C
20.02.2010 17:16 -0,2 C 85 % 996 hPa 0,0 l/m 17,0 km/h (3 Bft) SW45 235 0 min 3,80 klux 0,00 min -2,4 C -8,4 C
20.02.2010 17:31 -0,6 C 85 % 997 hPa 0,0 l/m 22,1 km/h (4 Bft) W-SW22.5 245 0 min 2,44 klux 0,00 min -2,8 C -11,4 C
20.02.2010 17:45 -0,7 C 85 % 997 hPa 0,0 l/m 19,7 km/h (3 Bft) W-SW22.5 255 0 min 1,20 klux 0,00 min -2,9 C -10,4 C
20.02.2010 18:00 -0,8 C 86 % 997 hPa 0,0 l/m 18,8 km/h (3 Bft) W-SW22.5 250 0 min 558 lux 0,00 min -2,8 C -10,1 C
20.02.2010 18:15 -0,9 C 86 % 997 hPa 0,0 l/m 21,6 km/h (4 Bft) W-SW45 240 0 min 212 lux 0,00 min -2,9 C -11,5 C
20.02.2010 18:30 -1,1 C 86 % 997 hPa 0,0 l/m 18,1 km/h (3 Bft) W-SW45 255 0 min 45 lux 0,00 min -3,1 C -10,1 C
20.02.2010 18:45 -1,4 C 84 % 997 hPa 0,0 l/m 22,9 km/h (4 Bft) W-SW22.5 255 0 min 13 lux 0,00 min -3,7 C -12,8 C
20.02.2010 19:01 -1,8 C 84 % 997 hPa 0,0 l/m 17,6 km/h (3 Bft) W-SW22.5 250 0 min 3 lux 0,00 min -4,1 C -10,7 C
20.02.2010 19:16 -2,4 C 84 % 998 hPa 0,0 l/m 8,5 km/h (2 Bft) W-SW 250 0 min 0 lux 0,00 min -4,7 C -4,7 C
20.02.2010 19:30 -2,9 C 85 % 998 hPa 0,0 l/m 10,1 km/h (2 Bft) W-SW22.5 240 0 min 0 lux 0,00 min -5,1 C -6,7 C
20.02.2010 19:45 -3,1 C 87 % 998 hPa 0,0 l/m 12,6 km/h (3 Bft) SW22.5 235 0 min 0 lux 0,00 min -4,9 C -9,0 C
20.02.2010 20:00 -3,3 C 87 % 998 hPa 0,0 l/m 13,8 km/h (3 Bft) SW22.5 230 0 min 0 lux 0,00 min -5,1 C -10,2 C
20.02.2010 20:15 -3,3 C 88 % 998 hPa 0,0 l/m 15,4 km/h (3 Bft) W-SW22.5 240 0 min 0 lux 0,00 min -5,0 C -11,2 C
20.02.2010 20:16 -3,3 C 88 % 998 hPa 0,0 l/m 15,4 km/h (3 Bft) W-SW22.5 240 0 min 0 lux 0,00 min -5,0 C -11,2 C
20.02.2010 20:31 -3,2 C 89 % 998 hPa 0,0 l/m 14,1 km/h (3 Bft) W-SW22.5 245 0 min 0 lux 0,00 min -4,7 C -10,2 C
20.02.2010 20:45 -3,2 C 90 % 998 hPa 0,0 l/m 10,3 km/h (2 Bft) SW22.5 235 0 min 0 lux 0,00 min -4,6 C -7,3 C
20.02.2010 21:00 -3,3 C 90 % 998 hPa 0,0 l/m 13,4 km/h (3 Bft) W-SW22.5 250 0 min 0 lux 0,00 min -4,7 C -9,9 C
20.02.2010 21:15 -3,1 C 90 % 998 hPa 0,0 l/m 9,4 km/h (2 Bft) W-SW22.5 245 0 min 0 lux 0,00 min -4,5 C -6,3 C
20.02.2010 21:30 -2,8 C 91 % 998 hPa 0,0 l/m 10,3 km/h (2 Bft) SW22.5 235 0 min 0 lux 0,00 min -4,1 C -6,8 C
20.02.2010 21:45 -2,5 C 92 % 998 hPa 0,0 l/m 16,6 km/h (3 Bft) SW22.5 220 0 min 0 lux 0,00 min -3,6 C -11,0 C
20.02.2010 22:01 -2,2 C 92 % 998 hPa 0,0 l/m 20,2 km/h (4 Bft) SW45 215 0 min 0 lux 0,00 min -3,3 C -12,6 C
20.02.2010 22:16 -2,1 C 93 % 998 hPa 0,0 l/m 17,9 km/h (3 Bft) SW45 225 0 min 0 lux 0,00 min -3,1 C -11,2 C
20.02.2010 22:30 -1,9 C 94 % 998 hPa 0,0 l/m 17,3 km/h (3 Bft) SW45 220 0 min 0 lux 0,00 min -2,7 C -10,7 C
20.02.2010 22:45 -1,8 C 94 % 998 hPa 0,0 l/m 17,3 km/h (3 Bft) W-SW45 240 0 min 0 lux 0,00 min -2,6 C -10,5 C
20.02.2010 23:00 -1,7 C 94 % 998 hPa 0,0 l/m 21,1 km/h (4 Bft) SW22.5 220 0 min 0 lux 0,00 min -2,5 C -12,4 C
20.02.2010 23:15 -1,6 C 95 % 998 hPa 0,0 l/m 22,0 km/h (4 Bft) SW45 230 0 min 0 lux 0,00 min -2,3 C -12,6 C
20.02.2010 23:31 -1,5 C 95 % 998 hPa 0,0 l/m 18,8 km/h (3 Bft) SW45 225 0 min 0 lux 0,00 min -2,2 C -11,0 C
20.02.2010 23:46 -1,5 C 95 % 998 hPa 0,0 l/m 21,3 km/h (4 Bft) SW45 225 0 min 0 lux 0,00 min -2,2 C -12,2 C
_ Min-Zeit 20:00 13:15 05:45 - 19:16 - - - - - 20:00 09:00
Minimum _ -3,3 C 80 % 994 hPa - 8,5 km/h (2 Bft) - - - - - -5,1 C -17,3 C
_ Max-Zeit 14:01 05:00 19:16 00:00 12:15 - - 11:46 13:46 00:00 12:45 19:16
Maximum _ 2,0 C 96 % 998 hPa 0,0 l/m 37,8 km/h
SW (5 Bft)
- - 16 min 62,6 klux 0,00 min -0,9 C -4,7 C
Durchschnitt _ -1,3 C 90 % 996 hPa #0,0 l/m 22,5 km/h (4 Bft) W-SW - #3:30 h 9,4 klux #0 min. -2,7 C -11,9 C